Location: Mentone
(34.5413°N, 85.5351°W)
Time: 13:06:46
(UTC-05:00)

Vanguard 3 - All Passes

Search period start: 31 March 2015 00:00
Search period end: 10 April 2015 00:00
Orbit: 509 x 3272 km, 33.4° (Epoch: 31 March)

Date Brightness Start Highest point End Pass type
(mag) Time Alt. Az. Time Alt. Az. Time Alt. Az.
31 Mar - 01:22:12 10° WSW 01:42:11 85° S 01:59:29 10° E visible
31 Mar - 03:39:34 10° W 03:59:37 80° SSW 04:13:05 10° ESE visible
31 Mar - 05:58:17 10° WNW 06:14:18 47° SW 06:24:02 10° SSE visible
31 Mar - 08:22:16 10° WSW 08:25:47 11° SW 08:27:54 10° SW daylight
31 Mar - 19:49:16 10° SSE 19:56:01 16° SE 20:05:46 10° E visible
31 Mar - 21:55:09 10° SSW 22:09:39 48° SE 22:28:23 10° ENE visible
01 Apr - 00:07:36 10° WSW 00:26:07 78° SSE 00:45:10 10° E visible
01 Apr - 02:23:40 10° W 02:44:04 86° S 02:59:55 10° E visible
01 Apr - 04:41:38 10° WNW 05:00:27 64° SSW 05:12:24 10° SE visible
01 Apr - 07:01:36 10° W 07:13:23 26° SW 07:21:02 10° S daylight
01 Apr - 20:43:49 10° SSW 20:55:25 33° SE 21:11:37 10° E visible
01 Apr - 22:53:59 10° SW 23:10:22 67° SSE 23:30:08 10° ENE visible
02 Apr - 01:08:23 10° W 01:28:01 86° S 01:46:02 10° E visible
02 Apr - 03:25:25 10° W 03:45:36 77° SSW 03:59:54 10° ESE visible
02 Apr - 05:44:03 10° WNW 06:00:21 43° SW 06:10:41 10° SSE visible
02 Apr - 19:34:25 10° SSE 19:41:57 19° SE 19:52:50 10° E visible
02 Apr - 21:41:24 10° SW 21:55:20 53° SSE 22:14:22 10° ENE visible
02 Apr - 23:53:56 10° WSW 00:11:51 81° SSE 00:31:26 10° E visible
03 Apr - 02:09:42 10° W 02:29:56 85° S 02:46:35 10° ESE visible
03 Apr - 04:27:22 10° WNW 04:46:24 60° SSW 04:59:06 10° SE visible
03 Apr - 06:47:50 10° W 06:59:27 23° SW 07:07:13 10° S daylight
03 Apr - 20:29:56 10° SSW 20:41:11 37° SE 20:57:39 10° E visible
03 Apr - 22:40:24 10° WSW 22:56:05 71° SSE 23:16:10 10° E visible
04 Apr - 00:54:39 10° W 01:13:47 87° S 01:32:29 10° E visible
04 Apr - 03:11:17 10° W 03:31:28 74° SSW 03:46:33 10° ESE visible
04 Apr - 05:29:52 10° W 05:46:17 39° SW 05:57:09 10° SSE visible
04 Apr - 19:20:03 10° S 19:27:53 21° SE 19:39:25 10° E visible
04 Apr - 21:27:49 10° SW 21:41:04 57° SSE 22:00:13 10° ENE visible
04 Apr - 23:40:23 10° WSW 23:57:36 84° S 00:17:37 10° E visible
05 Apr - 01:55:48 10° W 02:15:44 83° S 02:33:07 10° ESE visible
05 Apr - 04:13:08 10° WNW 04:32:13 55° SSW 04:45:38 10° SE visible
05 Apr - 06:34:14 10° W 06:45:25 20° SW 06:53:04 10° S daylight
05 Apr - 20:16:14 10° SSW 20:27:01 40° SE 20:43:30 10° E visible
05 Apr - 22:26:56 10° WSW 22:41:51 75° SSE 23:02:04 10° E visible
06 Apr - 00:41:00 10° W 00:59:32 87° S 01:18:48 10° E visible
06 Apr - 02:57:12 10° W 03:17:12 70° SSW 03:33:04 10° SE visible
06 Apr - 05:15:46 10° W 05:32:04 35° SW 05:43:23 10° SSE visible
06 Apr - 19:06:01 10° S 19:13:50 24° SE 19:25:43 10° E daylight
06 Apr - 21:14:22 10° SW 21:26:53 62° SSE 21:45:56 10° ENE visible
06 Apr - 23:26:55 10° W 23:43:22 85° S 00:03:40 10° E visible
07 Apr - 01:41:58 10° W 02:01:26 80° SSW 02:19:30 10° ESE visible
07 Apr - 03:58:59 10° WNW 04:17:54 51° SSW 04:31:57 10° SE visible
07 Apr - 06:20:57 10° W 06:31:19 17° SW 06:38:29 10° SSW daylight
07 Apr - 18:00:45 10° SE 18:01:17 10° SE 18:03:07 10° ESE daylight
07 Apr - 20:02:42 10° SSW 20:12:55 44° SE 20:29:14 10° ENE visible
07 Apr - 22:13:35 10° WSW 22:27:41 79° SSE 22:47:52 10° E visible
08 Apr - 00:27:24 10° W 00:45:16 86° S 01:04:58 10° E visible
08 Apr - 02:43:12 10° WNW 03:02:50 66° SSW 03:19:22 10° SE visible
08 Apr - 05:01:49 10° W 05:17:45 31° SW 05:29:20 10° S visible
08 Apr - 18:52:12 10° S 18:59:51 27° SE 19:11:47 10° E daylight
08 Apr - 21:01:03 10° SW 21:12:48 66° SSE 21:31:34 10° ENE visible
08 Apr - 23:13:31 10° W 23:29:11 86° S 23:49:37 10° E visible
09 Apr - 01:28:11 10° W 01:47:04 77° SSW 02:05:42 10° ESE visible
09 Apr - 03:44:55 10° WNW 04:03:28 46° SW 04:18:03 10° SSE visible
09 Apr - 06:08:10 10° W 06:17:09 15° SW 06:23:18 10° SSW daylight
09 Apr - 17:44:33 10° SE 17:47:27 12° SE 17:51:53 10° ESE daylight
09 Apr - 19:49:19 10° SW 19:58:54 48° SE 20:14:53 10° ENE visible
09 Apr - 22:00:20 10° WSW 22:13:36 81° SSE 22:33:34 10° E visible
